FW2951 Weather Reports


time (UTC)temp
C
wind
direction
speed
KPH
gust
KPH
rain 1hr
cm
rain 24hr
cm
rain mn
cm
humidity
%
barometer
mb
20260503033100 5 0 0.0 0.0 0.00 0.00 0.00 70 1018.4
20260503032544 5 0 0.0 0.0 0.00 0.00 0.00 69 1018.5
20260503032045 6 0 0.0 0.0 0.00 0.00 0.00 69 1018.5
20260503031555 6 0 0.0 0.0 0.00 0.00 0.00 68 1018.5
20260503031045 6 0 0.0 0.0 0.00 0.00 0.00 67 1018.5
20260503030543 6 0 0.0 0.0 0.00 0.00 0.00 69 1018.4
20260503030052 6 0 0.0 0.0 0.00 0.00 0.00 68 1018.4
20260503025543 6 0 0.0 0.0 0.00 0.00 0.00 68 1018.4
20260503025047 6 0 0.0 0.0 0.00 0.00 0.00 68 1018.4
20260503024552 6 0 0.0 0.0 0.00 0.00 0.00 67 1018.3
20260503024045 6 0 0.0 0.0 0.00 0.00 0.00 66 1018.4
20260503023544 6 0 0.0 0.0 0.00 0.00 0.00 64 1018.4
20260503023100 6 0 0.0 0.0 0.00 0.00 0.00 64 1018.2
20260503022544 6 0 0.0 0.0 0.00 0.00 0.00 65 1018.1
20260503022045 6 0 0.0 0.0 0.00 0.00 0.00 65 1018.2
20260503021552 6 0 0.0 0.0 0.00 0.00 0.00 64 1018.1
20260503021045 7 0 0.0 0.0 0.00 0.00 0.00 63 1018.0
20260503020545 7 0 0.0 1.6 0.00 0.00 0.00 63 1017.9
20260503020053 7 0 0.0 1.6 0.00 0.00 0.00 64 1017.8
20260503015544 7 0 0.0 0.0 0.00 0.00 0.00 65 1017.9
20260503015044 7 0 0.0 1.6 0.00 0.00 0.00 64 1017.9
20260503014555 7 0 0.0 1.6 0.00 0.00 0.00 64 1017.7
20260503014044 7 0 0.0 0.0 0.00 0.00 0.00 63 1017.7
20260503013544 7 0 0.0 0.0 0.00 0.00 0.00 63 1017.6
20260503013053 7 0 0.0 0.0 0.00 0.00 0.00 61 1017.5
20260503012547 7 0 0.0 0.0 0.00 0.00 0.00 61 1017.5
20260503012044 7 0 0.0 0.0 0.00 0.00 0.00 63 1017.3
20260503011555 8 0 0.0 0.0 0.00 0.00 0.00 61 1017.3
20260503011045 8 0 0.0 0.0 0.00 0.00 0.00 60 1017.3
20260503010542 8 0 0.0 0.0 0.00 0.00 0.00 60 1017.3
20260503010054 8 0 0.0 0.0 0.00 0.00 0.00 61 1017.2
20260503005541 8 0 0.0 0.0 0.00 0.00 0.00 62 1017.1
20260503005048 8 0 0.0 1.6 0.00 0.00 0.00 62 1017.0
20260503004549 8 0 0.0 1.6 0.00 0.00 0.00 61 1017.0
20260503004044 8 0 0.0 0.0 0.00 0.00 0.00 60 1016.9
20260503003544 9 0 0.0 0.0 0.00 0.00 0.00 60 1016.8
20260503003053 9 0 0.0 0.0 0.00 0.00 0.00 61 1016.9
20260503002544 10 0 0.0 0.0 0.00 0.00 0.00 59 1016.6
20260503002044 10 0 0.0 0.0 0.00 0.00 0.00 58 1016.6
20260503001608 10 0 0.0 0.0 0.00 0.00 0.00 59 1016.6
20260503001049 10 0 0.0 0.0 0.00 0.00 0.00 58 1016.5
20260503000545 10 0 0.0 1.6 0.00 0.00 0.00 57 1016.4
20260503000109 10 0 0.0 1.6 0.00 0.00 0.00 57 1016.4
20260502235544 10 0 0.0 1.6 0.00 0.00 0.00 58 1016.4
20260502235045 11 0 0.0 0.0 0.00 0.00 0.00 55 1016.3
20260502234600 11 0 0.0 3.2 0.00 0.00 0.00 54 1016.2
20260502234045 11 0 0.0 3.2 0.00 0.00 0.00 54 1016.2
20260502233544 11 0 0.0 1.6 0.00 0.00 0.00 55 1016.2
20260502233053 11 0 0.0 3.2 0.00 0.00 0.00 57 1016.1
20260502232547 11 0 0.0 3.2 0.00 0.00 0.00 56 1016.0
20260502232044 11 0 0.0 3.2 0.00 0.00 0.00 54 1016.1
20260502231608 11 313 0.0 3.2 0.00 0.00 0.00 54 1016.0
20260502231043 11 0 0.0 3.2 0.00 0.00 0.00 56 1015.9
20260502230545 11 0 0.0 3.2 0.00 0.00 0.00 56 1015.9
20260502230052 11 0 0.0 1.6 0.00 0.00 0.00 56 1015.8
20260502225544 11 0 0.0 3.2 0.00 0.00 0.00 55 1015.8
20260502225044 11 0 0.0 3.2 0.00 0.00 0.00 55 1015.8
20260502224556 11 0 0.0 1.6 0.00 0.00 0.00 55 1015.8
20260502224042 11 0 0.0 6.4 0.00 0.00 0.00 54 1015.8
20260502223546 11 0 0.0 6.4 0.00 0.00 0.00 51 1015.8
20260502223101 11 0 0.0 1.6 0.00 0.00 0.00 51 1015.8
20260502222545 11 0 0.0 1.6 0.00 0.00 0.00 52 1015.7
20260502222043 11 0 0.0 0.0 0.00 0.00 0.00 52 1015.8
20260502221553 11 0 0.0 4.8 0.00 0.00 0.00 51 1015.8
20260502221045 12 0 0.0 4.8 0.00 0.00 0.00 48 1015.6
20260502220545 12 0 0.0 1.6 0.00 0.00 0.00 52 1015.6
20260502220057 12 0 0.0 1.6 0.00 0.00 0.00 50 1015.5
20260502215545 12 0 0.0 3.2 0.00 0.00 0.00 51 1015.5
20260502215042 12 0 0.0 3.2 0.00 0.00 0.00 47 1015.4
20260502214554 12 0 0.0 3.2 0.00 0.00 0.00 52 1015.5
20260502214044 12 0 0.0 1.6 0.00 0.00 0.00 51 1015.4
20260502213545 12 0 0.0 1.6 0.00 0.00 0.00 48 1015.4
20260502213106 12 0 0.0 1.6 0.00 0.00 0.00 52 1015.4
20260502212547 12 0 0.0 1.6 0.00 0.00 0.00 53 1015.5
20260502212045 11 0 0.0 0.0 0.00 0.00 0.00 56 1015.5
20260502211552 11 0 0.0 0.0 0.00 0.00 0.00 58 1015.4
20260502211044 11 0 0.0 3.2 0.00 0.00 0.00 53 1015.5
20260502210542 12 0 0.0 3.2 0.00 0.00 0.00 53 1015.5
20260502210053 12 0 0.0 1.6 0.00 0.00 0.00 48 1015.4
20260502205542 12 0 0.0 6.4 0.00 0.00 0.00 49 1015.4
20260502205045 13 0 0.0 6.4 0.00 0.00 0.00 51 1015.4
20260502204616 13 0 0.0 4.8 0.00 0.00 0.00 48 1015.4
20260502204045 12 0 0.0 1.6 0.00 0.00 0.00 48 1015.5
20260502203546 12 0 0.0 1.6 0.00 0.00 0.00 50 1015.7
20260502203056 12 0 0.0 1.6 0.00 0.00 0.00 49 1015.7
20260502202546 12 0 0.0 1.6 0.00 0.00 0.00 52 1015.7
20260502202049 12 0 0.0 3.2 0.00 0.00 0.00 56 1015.7
20260502201552 11 0 0.0 3.2 0.00 0.00 0.00 53 1015.7
20260502201043 12 0 0.0 3.2 0.00 0.00 0.00 52 1015.7
20260502200542 12 0 0.0 1.6 0.00 0.00 0.00 54 1015.8
20260502200050 13 0 0.0 1.6 0.00 0.00 0.00 53 1015.9
20260502195545 13 0 0.0 1.6 0.00 0.00 0.00 57 1015.9
20260502195042 11 0 0.0 1.6 0.00 0.00 0.00 54 1015.9
20260502194549 11 0 0.0 1.6 0.00 0.00 0.00 54 1015.9
20260502194045 12 0 0.0 4.8 0.00 0.00 0.00 51 1016.0
20260502193545 12 0 0.0 4.8 0.00 0.00 0.00 50 1016.0
20260502193051 12 0 0.0 6.4 0.00 0.00 0.00 53 1016.1
20260502192545 12 0 0.0 6.4 0.00 0.00 0.00 52 1016.1
20260502192045 12 0 0.0 6.4 0.00 0.00 0.00 48 1016.1
20260502191552 12 0 0.0 3.2 0.00 0.00 0.00 50 1016.1
20260502191043 12 0 0.0 3.2 0.00 0.00 0.00 48 1016.1
20260502190544 12 0 0.0 1.6 0.00 0.00 0.00 50 1016.3
20260502190050 12 0 0.0 3.2 0.00 0.00 0.00 54 1016.4
20260502185543 12 0 0.0 3.2 0.00 0.00 0.00 55 1016.4
20260502185042 12 0 0.0 3.2 0.00 0.00 0.00 52 1016.4
20260502184558 12 0 0.0 0.0 0.00 0.00 0.00 53 1016.5
20260502184046 13 0 0.0 0.0 0.00 0.00 0.00 50 1016.4
20260502183545 12 0 0.0 0.0 0.00 0.00 0.00 52 1016.4
20260502183052 12 0 0.0 0.0 0.00 0.00 0.00 53 1016.6
20260502182545 12 0 0.0 1.6 0.00 0.00 0.00 49 1016.6
20260502182045 12 0 0.0 1.6 0.00 0.00 0.00 51 1016.7
20260502181553 12 0 0.0 3.2 0.00 0.00 0.00 52 1016.7
20260502181044 11 0 0.0 3.2 0.00 0.00 0.00 52 1016.7
20260502180544 11 244 0.0 6.4 0.00 0.00 0.00 51 1016.9
20260502180104 11 0 0.0 6.4 0.00 0.00 0.00 51 1017.0
20260502164043 12 0 0.0 4.8 0.00 0.00 0.00 54 1017.2
20260502163544 11 0 0.0 3.2 0.00 0.00 0.00 56 1017.3
20260502163053 11 0 0.0 3.2 0.00 0.00 0.00 52 1017.3
20260502162544 11 0 0.0 6.4 0.00 0.00 0.00 56 1017.3
20260502162043 12 0 0.0 6.4 0.00 0.00 0.00 50 1017.3
20260502161551 12 0 0.0 6.4 0.00 0.00 0.00 53 1017.3
20260502161044 11 0 0.0 1.6 0.00 0.00 0.00 56 1017.4
20260502160542 11 0 0.0 4.8 0.00 0.00 0.00 54 1017.4
20260502152044 11 0 0.0 3.2 0.00 0.00 0.00 55 1017.7
20260502151552 11 0 0.0 3.2 0.00 0.00 0.00 54 1017.6
20260502151048 12 0 0.0 0.0 0.00 0.00 0.00 55 1017.6
20260502150546 11 0 0.0 1.6 0.00 0.00 0.00 54 1017.6
20260502130545 8 0 0.0 0.0 0.00 0.00 0.00 81 1017.8
20260502123542 6 0 0.0 0.0 0.00 0.00 0.00 91 1017.7
20260502123055 6 0 0.0 0.0 0.00 0.00 0.00 91 1017.6
20260502122549 5 0 0.0 0.0 0.00 0.00 0.00 92 1017.6
20260502122046 5 0 0.0 0.0 0.00 0.00 0.00 92 1017.6
20260502121556 5 0 0.0 0.0 0.00 0.00 0.00 93 1017.4
20260502121045 4 0 0.0 0.0 0.00 0.00 0.00 93 1017.5
20260502120546 4 0 0.0 0.0 0.00 0.00 0.00 94 1017.5
20260502115544 3 0 0.0 0.0 0.00 0.00 0.00 95 1017.3
20260502115043 3 0 0.0 0.0 0.00 0.00 0.00 95 1017.3
20260502114553 3 0 0.0 0.0 0.00 0.00 0.00 95 1017.4
20260502114045 2 0 0.0 0.0 0.00 0.00 0.00 94 1017.4
20260502113542 2 0 0.0 0.0 0.00 0.00 0.00 94 1017.5
20260502113053 2 0 0.0 0.0 0.00 0.00 0.00 94 1017.4
20260502112549 2 0 0.0 0.0 0.00 0.00 0.00 94 1017.4
20260502112041 2 0 0.0 0.0 0.00 0.00 0.00 93 1017.3
20260502111613 2 0 0.0 0.0 0.00 0.00 0.00 94 1017.3
20260502111041 1 0 0.0 0.0 0.00 0.00 0.00 93 1017.2
20260502110544 1 0 0.0 0.0 0.00 0.00 0.00 93 1017.2
20260502110053 1 0 0.0 0.0 0.00 0.00 0.00 93 1017.2
20260502105545 1 0 0.0 0.0 0.00 0.00 0.00 93 1017.1
20260502105047 1 0 0.0 0.0 0.00 0.00 0.00 93 1017.1
20260502104549 1 0 0.0 0.0 0.00 0.00 0.00 93 1017.1
20260502104048 1 0 0.0 0.0 0.00 0.00 0.00 93 1017.0
20260502103545 1 0 0.0 0.0 0.00 0.00 0.00 93 1017.0
20260502103106 1 0 0.0 0.0 0.00 0.00 0.00 93 1017.0
20260502102543 1 0 0.0 0.0 0.00 0.00 0.00 93 1017.1
20260502102045 1 0 0.0 0.0 0.00 0.00 0.00 93 1017.2
20260502101601 1 0 0.0 0.0 0.00 0.00 0.00 92 1017.3
20260502101044 2 0 0.0 0.0 0.00 0.00 0.00 92 1017.4
20260502100544 2 0 0.0 0.0 0.00 0.00 0.00 93 1017.3
20260502091045 2 0 0.0 0.0 0.00 0.00 0.00 92 1017.5
20260502090545 2 0 0.0 0.0 0.00 0.00 0.00 92 1017.5
20260502071045 3 0 0.0 0.0 0.00 0.00 0.00 90 1017.2
20260502070545 3 0 0.0 0.0 0.00 0.00 0.00 90 1017.2
20260502070054 3 0 0.0 0.0 0.00 0.00 0.00 90 1017.2
20260502065545 3 0 0.0 0.0 0.00 0.00 0.00 90 1017.2
20260502065045 3 0 0.0 0.0 0.00 0.00 0.00 89 1017.3
20260502064548 3 0 0.0 0.0 0.00 0.00 0.00 90 1017.4
20260502064044 3 0 0.0 0.0 0.00 0.00 0.00 89 1017.3
20260502063545 3 0 0.0 0.0 0.00 0.00 0.00 89 1017.3
20260502063049 3 0 0.0 0.0 0.00 0.00 0.00 89 1017.3
20260502062543 3 0 0.0 0.0 0.00 0.00 0.00 89 1017.3
20260502062045 3 0 0.0 0.0 0.00 0.00 0.00 88 1017.4
20260502061552 3 0 0.0 0.0 0.00 0.00 0.00 88 1017.5
20260502061044 3 0 0.0 0.0 0.00 0.00 0.00 88 1017.6
20260502060545 3 0 0.0 0.0 0.00 0.00 0.00 88 1017.7
20260502060056 3 0 0.0 0.0 0.00 0.00 0.00 88 1017.7
20260502055545 4 0 0.0 0.0 0.00 0.00 0.00 88 1017.7
20260502055045 4 0 0.0 0.0 0.00 0.00 0.00 87 1017.7
20260502054600 4 0 0.0 0.0 0.00 0.00 0.00 87 1017.7
20260502054043 4 0 0.0 0.0 0.00 0.00 0.00 87 1017.7
20260502053542 4 0 0.0 0.0 0.00 0.00 0.00 87 1017.7
20260502053047 5 0 0.0 0.0 0.00 0.00 0.00 87 1017.8
20260502052544 5 0 0.0 0.0 0.00 0.00 0.00 86 1017.8
20260502052048 5 0 0.0 0.0 0.00 0.00 0.00 86 1017.9
20260502051549 5 0 0.0 0.0 0.00 0.00 0.00 86 1017.7
20260502051042 5 0 0.0 0.0 0.00 0.00 0.00 86 1017.8
20260502050545 5 0 0.0 0.0 0.00 0.00 0.00 86 1017.8
20260502050052 5 0 0.0 0.0 0.00 0.00 0.00 85 1017.8
20260502045544 5 0 0.0 0.0 0.00 0.00 0.00 85 1017.8
20260502045044 5 0 0.0 0.0 0.00 0.00 0.00 85 1017.9
20260502044548 5 0 0.0 0.0 0.00 0.00 0.00 84 1017.8
20260502044044 5 0 0.0 0.0 0.00 0.00 0.00 84 1018.0
20260502043541 5 0 0.0 0.0 0.00 0.00 0.00 83 1018.0
20260502043056 6 0 0.0 0.0 0.00 0.00 0.00 83 1018.1
20260502042549 6 0 0.0 0.0 0.00 0.00 0.00 83 1018.0
20260502042045 6 0 0.0 0.0 0.00 0.00 0.00 82 1018.1
20260502041549 6 0 0.0 0.0 0.00 0.00 0.00 82 1017.9
20260502041044 6 0 0.0 0.0 0.00 0.00 0.00 82 1018.0
20260502040545 6 0 0.0 0.0 0.00 0.00 0.00 82 1018.0
20260502040046 6 0 0.0 0.0 0.00 0.00 0.00 81 1017.8
20260502035547 6 0 0.0 0.0 0.00 0.00 0.00 81 1017.9
20260502035045 6 0 0.0 0.0 0.00 0.00 0.00 80 1017.9
20260502034553 6 0 0.0 0.0 0.00 0.00 0.00 80 1017.9
20260502034045 7 0 0.0 0.0 0.00 0.00 0.00 79 1017.9
20260502033545 7 0 0.0 0.0 0.00 0.00 0.00 79 1017.7